[[{"header":{"parameterUnit":"m.s-1","parameterCategory":1,"la1":30.2991,"la2":30.254,"lo1":-89.0895,"lo2":-89.0444,"dy":0.0017,"dx":0.0017,"nx":28,"ny":28,"refTime":"2025-09-13T21:00:00:Z","depth":0,"parameterNumber":2,"parameterNumberName":"U-component_of_WINDS"},"data":[0,0,0,0,0,0,0,0,0,0,0,0,0,0,0,0,0,0,0,0,0,0,0,0,0,0,0,0,0,0,0,0,0,0,0,0,0,0,0,0,0,0,0,0,0,0,0,0,0,0,0,0,0,0,0,0,0,0,1.5107,1.5107,0,1.5093,1.5093,1.5093,1.506,1.5059,1.5058,1.5058,1.5043,1.5043,1.5043,0,0,0,0,0,0,0,0,0,0,0,0,0,1.5104,1.5104,1.5107,1.5107,1.5107,1.5093,1.5093,1.5093,1.506,1.5059,1.5058,1.5057,1.5043,1.5043,1.5043,0,0,0,0,0,0,0,0,0,0,0,0,0,1.5099,1.5104,1.5107,1.5088,1.5087,1.5093,1.5093,1.5093,1.506,1.5059,1.5058,1.5057,1.5043,1.5043,1.5043,1.5066,0,0,1.5045,1.5045,0,0,0,0,0,0,0,0,1.5099,1.5099,1.5091,1.509,1.5088,1.5077,1.5086,1.5084,1.506,1.507,1.5058,1.5056,1.5055,1.5054,1.5054,1.5066,1.5065,1.5045,1.5045,1.5045,1.5045,0,0,0,0,0,0,0,1.51,1.51,1.5101,1.5091,1.5089,1.508,1.5079,1.5086,1.5068,1.5069,1.5067,1.5065,1.5054,1.5054,1.5053,1.5065,1.5045,1.5045,1.5045,1.5045,1.5093,1.5094,0,0,0,0,0,0,1.5103,1.51,1.5102,1.5101,1.5091,1.5081,1.5079,1.5081,1.5068,1.5065,1.5066,1.5064,1.5054,1.5053,1.5053,1.5077,1.5045,1.5045,1.5046,1.5092,1.5093,1.5094,0,0,0,0,0,0,1.5103,1.5103,1.5102,1.51,1.5099,1.5083,1.5085,1.5082,1.5081,1.5066,1.5063,1.5069,1.5053,1.5052,1.5063,1.5076,1.5046,1.5046,1.5091,1.5092,1.5094,1.5127,0,0,0,0,0,0,1.5103,1.5103,1.5112,1.51,1.5099,1.5113,1.5086,1.5082,1.5082,1.5079,1.5068,1.5065,1.5052,1.5062,1.5063,1.5076,1.5046,1.5089,1.5091,1.5093,1.5125,1.513,1.5134,0,0,0,0,0,1.5103,1.5123,1.5113,1.5113,1.511,1.5114,1.5113,1.5097,1.5084,1.5092,1.5082,1.5066,1.5075,1.5064,1.5064,1.5078,1.5088,1.5091,1.5093,1.5123,1.5129,1.5134,0,0,0,0,0,0,1.5137,1.5121,1.511,1.5126,1.5122,1.5108,1.5118,1.5105,1.5104,1.5101,1.5081,1.5079,1.5092,1.5086,1.5074,1.5098,1.5079,1.5082,1.5101,1.5107,1.5111,1.5112,1.5046,0,0,0,0,0,1.5146,1.5151,1.5137,1.5153,1.5151,1.5135,1.5136,1.5124,1.5119,1.5117,1.5108,1.5103,1.5104,1.5105,1.5106,1.5124,1.5121,1.5134,1.5138,1.5142,1.5144,1.5151,1.5156,1.5102,1.5102,1.5102,0,0,1.5166,1.5158,1.5162,1.5159,1.5154,1.5159,1.5134,1.514,1.5143,1.5118,1.5126,1.512,1.5113,1.5127,1.5133,1.5122,1.5158,1.5145,1.5148,1.5148,1.5154,1.5159,1.5164,1.5103,1.5103,1.5103,0,0,1.5203,1.5198,1.521,1.5205,1.5198,1.5187,1.519,1.5179,1.5173,1.5182,1.5163,1.5166,1.517,1.5165,1.5163,1.5198,1.5182,1.5199,1.5222,1.5229,1.5234,1.5237,1.5248,1.5252,1.5201,1.5201,1.5201,0,1.5228,1.5234,1.5218,1.5225,1.5224,1.5201,1.5212,1.5209,1.5202,1.5201,1.519,1.5193,1.5187,1.5199,1.5207,1.5207,1.5209,1.5199,1.5234,1.5238,1.5241,1.5251,1.5255,1.5203,1.5203,1.5203,1.5202,0,1.5265,1.5269,1.528,1.5274,1.5274,1.5283,1.5267,1.5269,1.5258,1.5248,1.5256,1.5248,1.5246,1.5248,1.5237,1.5258,1.5252,1.5238,1.5218,1.5248,1.5257,1.5261,1.5206,1.5205,1.5204,1.5204,0,0,1.5322,1.5306,1.531,1.5306,1.5297,1.53,1.5308,1.5306,1.5307,1.5303,1.5308,1.5312,1.5298,1.5296,1.5284,1.5291,1.5317,1.5276,1.5276,1.5282,1.5338,1.5347,1.5352,1.5307,1.5308,1.5309,1.5337,0,1.5356,1.5368,1.5353,1.5369,1.5372,1.535,1.5357,1.5351,1.5342,1.5344,1.5334,1.5336,1.5319,1.5317,1.5323,1.5313,1.5327,1.5311,1.5311,1.5311,1.5311,1.5356,1.5367,1.5394,1.5341,1.5342,1.5342,0,1.5397,1.5394,1.541,1.5398,1.5399,1.5405,1.5401,1.5403,1.5396,1.5389,1.5386,1.5371,1.5377,1.5359,1.5366,1.5355,1.5354,1.5349,1.535,1.5348,1.5327,1.5354,1.5403,1.5406,1.5348,1.5347,1.5347,0,1.5435,1.5436,1.5445,1.5443,1.5429,1.5434,1.5428,1.542,1.5419,1.5416,1.5415,1.5413,1.5411,1.5409,1.5394,1.5382,1.5403,1.5383,1.5396,1.5396,1.54,1.5399,1.5447,1.5402,1.5402,1.5402,1.5402,0,1.5473,1.5483,1.5462,1.5467,1.5477,1.546,1.547,1.5463,1.5455,1.5458,1.544,1.5443,1.5423,1.5424,1.5413,1.5419,1.5419,1.5413,1.5409,1.5413,1.5414,1.5411,1.5408,1.5403,1.5403,1.5403,1.5403,0,1.5517,1.5503,1.5511,1.5498,1.5495,1.5503,1.5491,1.5495,1.5485,1.5489,1.5488,1.5473,1.5472,1.5457,1.5454,1.5446,1.5457,1.5451,1.546,1.5457,1.5469,1.5468,1.5516,1.5521,1.5475,1.5475,1.5475,0,1.5541,1.5548,1.5535,1.5536,1.5531,1.5533,1.5532,1.5515,1.5514,1.5506,1.5511,1.5509,1.5507,1.5507,1.5495,1.5492,1.5485,1.5502,1.5484,1.5488,1.5483,1.5482,1.5482,1.5505,1.5506,1.5506,1.5507,0,1.5585,1.5578,1.5577,1.5574,1.5573,1.557,1.5565,1.5567,1.5548,1.5549,1.5548,1.5546,1.5543,1.554,1.5535,1.5529,1.5514,1.5513,1.5515,1.5518,1.5522,1.5518,1.5468,1.5511,1.5511,1.551,1.551,1.551,1.5619,1.5624,1.5615,1.5614,1.5609,1.5605,1.5608,1.5598,1.5597,1.5593,1.5583,1.5584,1.5575,1.5566,1.5561,1.5561,1.5552,1.5556,1.5557,1.5558,1.5559,1.5524,1.556,1.556,1.556,1.556,1.556,0,1.5661,1.5654,1.5654,1.5647,1.5647,1.5634,1.5628,1.5628,1.5629,1.5622,1.562,1.5618,1.5616,1.5604,1.56,1.5602,1.5595,1.5601,1.56,1.5599,1.5568,1.5566,1.5607,1.5607,1.5607,1.5607,1.5607,1.5607,1.5682,1.5689,1.568,1.5684,1.5677,1.5677,1.5675,1.567,1.5665,1.5664,1.5662,1.5654,1.5645,1.564,1.5637,1.5633,1.5632,1.564,1.5634,1.5606,1.5601,1.5597,1.5594,1.564,1.564,1.5664,1.5664,1.5664]},{"header":{"parameterUnit":"m.s-1","parameterCategory":1,"la1":30.2991,"la2":30.254,"lo1":-89.0895,"lo2":-89.0444,"dy":0.0017,"dx":0.0017,"nx":28,"ny":28,"refTime":"2025-09-13T21:00:00:Z","depth":0,"parameterNumber":3,"parameterNumberName":"V-component_of_WINDS"},"data":[0,0,0,0,0,0,0,0,0,0,0,0,0,0,0,0,0,0,0,0,0,0,0,0,0,0,0,0,0,0,0,0,0,0,0,0,0,0,0,0,0,0,0,0,0,0,0,0,0,0,0,0,0,0,0,0,0,0,0.2268,0.2267,0,0.221,0.2209,0.2209,0.2167,0.2166,0.2166,0.2165,0.2104,0.2103,0.2102,0,0,0,0,0,0,0,0,0,0,0,0,0,0.2339,0.2338,0.2268,0.2267,0.2266,0.221,0.2209,0.2208,0.2167,0.2166,0.2166,0.2165,0.2105,0.2103,0.2102,0,0,0,0,0,0,0,0,0,0,0,0,0,0.2297,0.2338,0.2268,0.2239,0.2236,0.221,0.2209,0.2208,0.2167,0.2166,0.2166,0.2165,0.2105,0.2103,0.2102,0.21,0,0,0.2096,0.2095,0,0,0,0,0,0,0,0,0.23,0.2295,0.2244,0.2241,0.2237,0.2195,0.2212,0.2172,0.2167,0.2193,0.2165,0.2165,0.2135,0.213,0.2121,0.2097,0.2095,0.2095,0.2094,0.2093,0.2093,0,0,0,0,0,0,0,0.2303,0.2297,0.2245,0.2243,0.2239,0.2228,0.2221,0.2204,0.2167,0.219,0.2187,0.2181,0.2133,0.2123,0.2119,0.2094,0.2095,0.2094,0.2093,0.2092,0.2064,0.2065,0,0,0,0,0,0,0.2311,0.23,0.2247,0.2243,0.2268,0.2227,0.2219,0.2209,0.2167,0.2161,0.2182,0.2179,0.2126,0.2121,0.2117,0.2111,0.2093,0.2092,0.209,0.2064,0.2065,0.2065,0,0,0,0,0,0,0.2312,0.2306,0.2249,0.2271,0.2262,0.2226,0.2215,0.2208,0.2198,0.2161,0.2154,0.2178,0.2126,0.2119,0.2104,0.2109,0.2091,0.2089,0.2064,0.2064,0.2065,0.2101,0,0,0,0,0,0,0.2315,0.2307,0.2307,0.2271,0.2261,0.2239,0.2215,0.2207,0.2195,0.2191,0.2156,0.2149,0.2125,0.2107,0.2102,0.2106,0.2087,0.2063,0.2064,0.2065,0.21,0.2103,0.2106,0,0,0,0,0,0.2317,0.2319,0.2307,0.2301,0.2261,0.2239,0.2233,0.2206,0.2195,0.2194,0.217,0.215,0.2109,0.2106,0.21,0.2103,0.2063,0.2064,0.2065,0.2098,0.2103,0.2106,0,0,0,0,0,0,0.2357,0.2314,0.23,0.2291,0.2269,0.2232,0.223,0.2212,0.2192,0.2189,0.2155,0.2147,0.2135,0.2117,0.2115,0.2099,0.2083,0.2083,0.2111,0.2115,0.2118,0.2122,0.2086,0,0,0,0,0,0.2364,0.2351,0.2314,0.231,0.23,0.2267,0.2256,0.2237,0.2212,0.2203,0.2178,0.2154,0.2135,0.2124,0.2105,0.2097,0.2088,0.2096,0.2099,0.2102,0.2102,0.2095,0.2098,0.2068,0.2068,0.2068,0,0,0.238,0.2355,0.2349,0.2317,0.2298,0.2284,0.2259,0.2246,0.2235,0.22,0.2185,0.2165,0.2137,0.2125,0.2118,0.2109,0.2108,0.2103,0.2106,0.2104,0.2096,0.2099,0.2102,0.2069,0.2069,0.2069,0,0,0.2401,0.2382,0.2375,0.2356,0.2327,0.2305,0.2304,0.2269,0.2255,0.2239,0.2212,0.2198,0.2168,0.2148,0.2134,0.2147,0.2127,0.2141,0.2159,0.2152,0.2155,0.2157,0.216,0.2162,0.2142,0.2142,0.2142,0,0.2424,0.2403,0.2374,0.2362,0.2348,0.2317,0.2309,0.2292,0.2258,0.2249,0.224,0.22,0.2178,0.2161,0.2164,0.2154,0.215,0.2145,0.2157,0.2158,0.216,0.2163,0.2164,0.2144,0.2143,0.2143,0.2143,0,0.2432,0.2418,0.2416,0.2385,0.237,0.2361,0.2329,0.2318,0.23,0.2278,0.2262,0.2234,0.2209,0.2203,0.2185,0.2183,0.2178,0.2164,0.2147,0.2165,0.2167,0.2168,0.2146,0.2146,0.2145,0.2145,0,0,0.2477,0.2429,0.2429,0.2414,0.2379,0.2367,0.2355,0.2331,0.2322,0.2299,0.2288,0.2262,0.2248,0.2232,0.2211,0.2205,0.2216,0.2191,0.219,0.2196,0.2211,0.2222,0.2224,0.2203,0.2203,0.2203,0.2213,0,0.2493,0.2471,0.2444,0.2431,0.2417,0.2386,0.2375,0.2353,0.2332,0.2316,0.2293,0.2275,0.2258,0.2248,0.2241,0.2216,0.2218,0.2215,0.2191,0.219,0.2199,0.2225,0.2237,0.2248,0.2214,0.2214,0.2214,0,0.2508,0.2488,0.2474,0.2439,0.2432,0.2423,0.2398,0.2384,0.2356,0.2342,0.2324,0.2301,0.2286,0.2271,0.2249,0.2248,0.2236,0.2222,0.2222,0.2218,0.2203,0.2222,0.2251,0.2252,0.2215,0.2215,0.2215,0,0.2542,0.251,0.2498,0.2486,0.2445,0.244,0.2422,0.2395,0.2381,0.2359,0.235,0.2326,0.2313,0.2294,0.2265,0.2257,0.2246,0.2229,0.2232,0.2233,0.2231,0.2231,0.2258,0.2224,0.2224,0.2224,0.2224,0,0.2562,0.2554,0.2512,0.2504,0.2494,0.2462,0.2453,0.2433,0.2408,0.2395,0.2367,0.2355,0.2317,0.23,0.2277,0.2262,0.2256,0.2243,0.2237,0.2246,0.2247,0.2237,0.2236,0.2225,0.2224,0.2224,0.2224,0,0.2598,0.2569,0.2553,0.2516,0.2507,0.2501,0.2469,0.2459,0.2437,0.242,0.2414,0.2379,0.2358,0.2327,0.2296,0.228,0.2268,0.2259,0.2278,0.2274,0.2279,0.2278,0.2299,0.23,0.2267,0.2267,0.2268,0,0.2612,0.2606,0.2568,0.2558,0.2541,0.2525,0.2511,0.2479,0.2466,0.2433,0.2428,0.2404,0.2384,0.2351,0.2322,0.2297,0.2287,0.2296,0.2283,0.2291,0.2286,0.2287,0.2285,0.2299,0.2299,0.23,0.23,0,0.2641,0.2627,0.2609,0.2585,0.2569,0.2549,0.2527,0.252,0.2483,0.2469,0.2448,0.2432,0.24,0.2377,0.2349,0.233,0.2308,0.2304,0.2304,0.2312,0.2323,0.2316,0.2286,0.2304,0.2304,0.2303,0.2303,0.2303,0.2666,0.2658,0.263,0.2611,0.2591,0.2571,0.256,0.2536,0.2518,0.249,0.2472,0.2451,0.2422,0.2382,0.2364,0.2346,0.2338,0.2337,0.2336,0.2337,0.2339,0.2326,0.2341,0.2341,0.2341,0.2341,0.2341,0,0.2693,0.2673,0.2655,0.2626,0.261,0.2592,0.2566,0.2554,0.2536,0.2512,0.2492,0.2466,0.2443,0.2412,0.2386,0.2378,0.2367,0.2372,0.2372,0.2368,0.2349,0.2352,0.2381,0.2381,0.2381,0.2381,0.2381,0.2381,0.2704,0.269,0.2673,0.2648,0.2628,0.2608,0.2595,0.2576,0.2556,0.2529,0.251,0.249,0.2462,0.2434,0.2412,0.2403,0.2394,0.2402,0.2391,0.2373,0.237,0.2366,0.2369,0.2401,0.2401,0.2411,0.2411,0.2411]}]]